Regional Weather Roundup
Issued by NWS

Home | Current Version | Previous Version | Text Only | Print | Product List | Glossary Off
Versions: 1 2 3 4 5 6 7 8 9 10 11 12 13 14 15 16 17 18 19 20 21 22 23 24 25 26 27 28 29 30 31 32 33 34 35 36 37 38 39 40 41 42 43 44 45 46 47 48 49 50

257
ASUS43 KLSX 281507
RWRMO

WEATHER SUMMARY FOR MISSOURI
NATIONAL WEATHER SERVICE SPRINGFIELD MO
1000 AM CDT WED SEP 28 2016

NOTE: "FAIR" INDICATES FEW OR NO CLOUDS BELOW 12,000 FEET WITH NO
       SIGNIFICANT WEATHER AND/OR OBSTRUCTIONS TO VISIBILITY.
       CURRENT SKY AND/OR WEATHER CONDITIONS ARE NOT AVAILABLE FOR
       CHILLICOTHE AND FARMINGTON.

MOZ001>031-035>038-043-044-053-054-281600-
...NORTHERN AND WESTERN MISSOURI...

CITY           SKY/WX    TMP DP  RH WIND       PRES   REMARKS
KANSAS CTY INT MOSUNNY   58  46  64 N10       30.06R
KANSAS C DTWN  SUNNY     61  46  57 N10G18    30.04R
LEE`S SUMMIT   SUNNY     59  45  59 N16       30.04R
ST JOSEPH      SUNNY     58  46  64 N15       30.09R
CHILLICOTHE      N/A     57  46  66 N9G17     30.07R
KIRKSVILLE     PTSUNNY   55  44  66 N18G25    30.03R

$$
MOZ066>068-077>081-088>096-101>105-281600-
...SOUTHWEST MISSOURI...

CITY           SKY/WX    TMP DP  RH WIND       PRES   REMARKS
SPRINGFIELD    SUNNY     68  52  56 NW14      29.96R
JOPLIN         SUNNY     67  54  63 N13       30.00R
BRANSON        SUNNY     70  50  49 NW6       29.97R

$$
MOZ032>034-039>042-045>050-055>058-069>072-281600-
...CENTRAL MISSOURI...

CITY           SKY/WX    TMP DP  RH WIND       PRES   REMARKS
COLUMBIA       SUNNY     61  45  55 MISG      29.98R
JEFFERSON CITY MOSUNNY   61  45  55 N15       29.97R
ROLLA          SUNNY     64  48  56 N12       29.93R
SEDALIA        SUNNY     63  45  51 N14       30.01R
WHITEMAN AFB   SUNNY     61  47  60 N15       30.00R
OSAGE BEACH    SUNNY     64  45  49 VRB7      29.97R

$$
MOZ051-052-059>065-281600-
...EAST CENTRAL MISSOURI...

CITY           SKY/WX    TMP DP  RH WIND       PRES   REMARKS
ST LOUIS INTL  MOSUNNY   64  44  48 N15G24    29.91R
SPIRIT OF STL  MOSUNNY   63  47  55 N10       29.91R
ST CHARLES     MOSUNNY   62  47  57 N16G28    29.92R

$$
MOZ072>076-082>087-097>100-106>115-281600-
...SOUTH CENTRAL AND SOUTHEAST MISSOURI...

CITY           SKY/WX    TMP DP  RH WIND       PRES   REMARKS
CAPE GIRARDEAU CLOUDY    66  53  63 W12       29.85R
FARMINGTON     CLOUDY    65  54  67 NW7       29.90R
POPLAR BLUFF   SUNNY     69  54  58 W7        29.87R
WEST PLAINS    SUNNY     68  51  54 W13       29.93R

$$



USA.gov is the U.S. government's official web portal to all federal, state and local government web resources and services.